Location: Allentsteig
(48.6833°N, 15.3167°E)
Time: 06:31:34
(UTC+00:00)

Cosmos 2082 Rocket - Pass Details

Date: 18 September 2020
Orbit: 834 x 853 km, 71.0° (Epoch: 23 October)

Event Time Altitude Azimuth Distance (km) Brightness Sun altitude
Rises 20:39:45 0° 332° (NNW) 3,393 6.4 -32.2°
Reaches altitude 10° 20:42:13 10° 335° (NNW) 2,456 5.4 -32.5°
Enters shadow 20:46:13 47° 350° (N) 1,101 3.0 -32.9°
